Location: Beekmeers
(50.8953°N, 3.6968°E)
Time: 12:36:50
(UTC+00:00)

Cosmos 676 Rocket - Pass Details

Date: 23 May 2024
Orbit: 752 x 781 km, 74.0° (Epoch: 18 June)

Event Time Altitude Azimuth Distance (km) Brightness Sun altitude
Exits shadow 00:42:52 28° 174° (S) 1,444 4.9 -17.2°
Maximum altitude 00:45:32 56° 108° (ESE) 929 4.4 -17.1°
Drops below altitude 10° 00:50:45 10° 31° (NNE) 2,349 7.7 -16.9°
Sets 00:53:10 0° 28° (NNE) 3,281 8.9 -16.8°
